Weather History for Park Rapids, MN

Change the Weather History Date:

Wednesday, May 14, 2014

  Actual Average Record
Temperature  
Mean Temperature 37 °F -  
Max Temperature 45 °F 68 °F 89 °F (1991)
Min Temperature 30 °F 40 °F 28 °F (1983)
Degree Days  
Heating Degree Days 28    
Moisture  
Dew Point 28 °F    
Average Humidity 69    
Maximum Humidity 96    
Minimum Humidity 47    
Precipitation  
Precipitation 0.00 in - - ()
Sea Level Pressure  
Sea Level Pressure 30.26 in    
Wind  
Wind Speed 10 mph (NW)    
Max Wind Speed 16 mph    
Max Gust Speed -    
Visibility 10 miles    
Events      
Averages and records for this station are not official NWS values.
T = Trace of Precipitation, MM = Missing Value Source: NWS Daily Summary

Daily Weather History Graph

Daily Weather History Graph

Search for Another Location

Airport:

Trip Planner

Search our weather history database for the weather conditions in past years. The results will help you decide how hot, cold, wet, or windy it might be!

Date:

Astronomy

May. 14, 2014 Rise Set
Actual Time 5:46 AM CDT 8:47 PM CDT
Civil Twilight 5:10 AM CDT 9:23 PM CDT
Nautical Twilight 4:24 AM CDT 10:09 PM CDT
Astronomical Twilight 3:28 AM CDT 11:06 PM CDT
Moon 8:52 PM CDT (5/14) 5:49 AM CDT (5/14)
Length of Visible Light 16h 12m
Length of Day
15h 01m
Full, 100% of the Moon is Illuminated
May 14
Full
May 14
Full
May 21
Last Quarter
May 28
New
Jun 5
First Quarter

Hourly Weather History & Observations

Time (CDT) Temp. Windchill Dew Point Humidity Pressure Visibility Wind Dir Wind Speed Gust Speed Precip Events Conditions
12:53 AM 33.1 °F 26.9 °F 30.9 °F 92% 30.18 in 10.0 mi WSW 6.9 mph - N/A   Clear
1:53 AM 33.1 °F 26.1 °F 30.9 °F 92% 30.18 in 10.0 mi West 8.1 mph - N/A   Clear
2:53 AM 34.0 °F 28.0 °F 30.9 °F 89% 30.19 in 10.0 mi West 6.9 mph - N/A   Clear
3:53 AM 33.8 °F 27.7 °F 30.2 °F 87% 30.16 in 10.0 mi WNW 6.9 mph - N/A   Clear
4:53 AM 32.0 °F 25.6 °F 30.0 °F 92% 30.21 in 10.0 mi West 6.9 mph - N/A   Partly Cloudy
5:53 AM 30.9 °F 23.5 °F 30.0 °F 96% 30.23 in 10.0 mi WNW 8.1 mph - N/A   Clear
6:53 AM 34.0 °F 27.2 °F 32.0 °F 92% 30.23 in 10.0 mi WNW 8.1 mph - N/A   Clear
7:53 AM 37.0 °F 29.3 °F 33.1 °F 86% 30.24 in 10.0 mi NW 11.5 mph - N/A   Clear
8:53 AM 39.9 °F 31.4 °F 30.9 °F 70% 30.25 in 10.0 mi NW 16.1 mph - N/A   Partly Cloudy
9:45 AM 41.0 °F 32.8 °F 28.9 °F 62% 30.21 in 10.0 mi NNW 16.1 mph - N/A   Scattered Clouds
9:53 AM 42.8 °F 35.1 °F 28.4 °F 57% 30.21 in 10.0 mi NNW 16.1 mph - N/A   Scattered Clouds
10:53 AM 43.0 °F 35.7 °F 27.0 °F 53% 30.27 in 10.0 mi NNW 15.0 mph - N/A   Mostly Cloudy
11:53 AM 44.1 °F 38.1 °F 25.0 °F 47% 30.27 in 10.0 mi NNW 11.5 mph - N/A   Overcast
12:53 PM 44.1 °F 37.7 °F 26.1 °F 49% 30.28 in 10.0 mi NW 12.7 mph - N/A   Overcast
1:53 PM 43.0 °F 35.4 °F 27.0 °F 53% 30.29 in 10.0 mi NW 16.1 mph - N/A   Overcast
2:53 PM 42.1 °F 35.2 °F 26.1 °F 53% 30.30 in 10.0 mi NW 12.7 mph - N/A   Overcast
3:53 PM 42.1 °F 35.2 °F 26.1 °F 53% 30.30 in 10.0 mi NW 12.7 mph - N/A   Overcast
4:53 PM 41.0 °F 33.9 °F 27.0 °F 57% 30.30 in 10.0 mi NW 12.7 mph - N/A   Overcast
5:53 PM 41.0 °F 34.7 °F 27.0 °F 57% 30.30 in 10.0 mi NNW 10.4 mph - N/A   Overcast
6:53 PM 39.9 °F 32.9 °F 27.0 °F 60% 30.30 in 10.0 mi NNW 11.5 mph - N/A   Overcast
7:53 PM 39.0 °F 32.3 °F 27.0 °F 62% 30.30 in 10.0 mi NNW 10.4 mph - N/A   Overcast
8:53 PM 39.0 °F 34.0 °F 27.0 °F 62% 30.30 in 10.0 mi NNW 6.9 mph - N/A   Overcast
9:53 PM 37.9 °F 31.5 °F 28.0 °F 68% 30.32 in 10.0 mi NNW 9.2 mph - N/A   Overcast
10:53 PM 37.9 °F 33.5 °F 27.0 °F 65% 30.31 in 10.0 mi NNW 5.8 mph - N/A   Overcast
11:53 PM 37.9 °F 30.9 °F 27.0 °F 65% 30.30 in 10.0 mi North 10.4 mph - N/A   Overcast